Time,TemperatureF,DewpointF,PressureIn,WindDirection,WindDirectionDegrees,WindSpeedMPH,WindSpeedGustMPH,Humidity,HourlyPrecipIn,Conditions,Clouds,dailyrainin,SoftwareType,DateUTC
2013-01-04 00:03:00,31.0,28.0,30.20,WNW,298,5.0,7.0,90,0.00,,,0.02,,2013-01-04 05:03:00,
2013-01-04 00:12:00,31.0,28.0,30.20,WNW,298,5.0,7.0,90,0.00,,,0.02,,2013-01-04 05:12:00,
2013-01-04 00:22:00,31.0,29.0,30.20,West,280,10.0,10.0,91,0.00,,,0.02,,2013-01-04 05:22:00,
2013-01-04 00:33:00,31.0,29.0,30.20,WNW,298,6.0,6.0,91,0.00,,,0.02,,2013-01-04 05:33:00,
2013-01-04 00:42:00,31.0,29.0,30.20,WNW,298,6.0,6.0,91,0.00,,,0.02,,2013-01-04 05:42:00,
2013-01-04 00:53:00,31.0,29.0,30.19,WNW,297,4.0,4.0,93,0.00,,,0.02,,2013-01-04 05:53:00,
2013-01-04 01:02:00,31.0,29.0,30.19,WNW,298,4.0,4.0,92,0.00,,,0.02,,2013-01-04 06:02:00,
2013-01-04 01:12:00,31.0,29.0,30.19,WNW,298,4.0,4.0,92,0.00,,,0.02,,2013-01-04 06:12:00,
2013-01-04 01:22:00,31.0,29.0,30.19,West,280,2.0,2.0,93,0.00,,,0.02,,2013-01-04 06:22:00,
2013-01-04 01:32:00,31.0,29.0,30.18,West,278,6.0,6.0,92,0.00,,,0.02,,2013-01-04 06:32:00,
2013-01-04 01:42:00,31.0,29.0,30.18,West,278,6.0,6.0,92,0.00,,,0.02,,2013-01-04 06:42:00,
2013-01-04 01:52:00,30.0,28.0,30.18,WNW,298,5.0,5.0,94,0.00,,,0.02,,2013-01-04 06:52:00,
2013-01-04 02:02:00,30.0,29.0,-100.00,NW,314,3.0,8.0,95,0.00,,,0.02,,2013-01-04 07:02:00,
2013-01-04 02:12:00,30.0,29.0,-100.00,NW,314,3.0,8.0,95,0.00,,,0.02,,2013-01-04 07:12:00,
2013-01-04 02:22:00,29.0,28.0,30.18,WNW,297,4.0,4.0,95,0.00,,,0.02,,2013-01-04 07:22:00,
2013-01-04 02:32:00,29.0,28.0,30.18,NW,321,3.0,6.0,95,0.00,,,0.02,,2013-01-04 07:32:00,
2013-01-04 02:42:00,29.0,28.0,30.18,NW,321,3.0,6.0,95,0.00,,,0.02,,2013-01-04 07:42:00,
2013-01-04 02:52:00,29.0,28.0,30.18,WNW,284,6.0,6.0,95,0.00,,,0.02,,2013-01-04 07:52:00,
2013-01-04 03:02:00,29.0,27.0,30.18,WSW,253,5.0,5.0,93,0.00,,,0.02,,2013-01-04 08:02:00,
2013-01-04 03:12:00,29.0,27.0,30.18,WSW,253,5.0,5.0,93,0.00,,,0.02,,2013-01-04 08:12:00,
2013-01-04 03:22:00,29.0,27.0,30.17,West,262,6.0,6.0,92,0.00,,,0.02,,2013-01-04 08:22:00,
2013-01-04 03:32:00,28.0,26.0,30.18,West,271,1.0,0.0,93,0.00,,,0.02,,2013-01-04 08:32:00,
2013-01-04 03:42:00,28.0,26.0,30.18,West,271,1.0,0.0,93,0.00,,,0.02,,2013-01-04 08:42:00,
2013-01-04 03:53:00,28.0,27.0,30.18,NW,318,2.0,2.0,94,0.00,,,0.02,,2013-01-04 08:53:00,
2013-01-04 04:02:00,27.0,26.0,30.19,NW,323,0.0,0.0,94,0.00,,,0.02,,2013-01-04 09:02:00,